{"data":{"norad_id":33331,"epoch":"2026-09-20T04:17:22.488000Z","epoch_age_seconds":42035,"freshness":"FRESH","line1":"1 33331U 08042A   26263.17873250  .00000204  00000+0  47283-4 0  9992","line2":"2 33331  98.1257 335.9624 0005773 113.4975 246.6835 14.64692738964059","mean_motion":14.64692738,"eccentricity":0.0005773,"inclination_deg":98.1257,"raan_deg":335.9624,"arg_perigee_deg":113.4975,"mean_anomaly_deg":246.6835,"bstar":4.7283e-5,"rev_number":96405,"period_min":98.314135288626,"perigee_km":673.98849056904,"apogee_km":682.13557797401,"semimajor_km":7056.1990342715,"source":"CELESTRAK","updated_at":"2026-09-20T09:00:33.888458Z"}}